| time (UTC) | temp F | wind direction | speed MPH | gust MPH | rain 1hr in | rain 24hr in | rain mn in | humidity % | barometer mb |
| 20260902044532 | 85 | 77 | 2.0 | 6.0 | 0.00 | 0.00 | 0.00 | 65 | 1012.9 |
| 20260902043020 | 86 | 146 | 0.0 | 4.0 | 0.00 | 0.00 | 0.00 | 64 | 1012.9 |
| 20260902041511 | 86 | 149 | 1.0 | 5.0 | 0.00 | 0.00 | 0.00 | 64 | 1012.8 |
| 20260902040029 | 87 | 152 | 1.0 | 4.0 | 0.00 | 0.00 | 0.00 | 64 | 1012.8 |
| 20260902034522 | 87 | 140 | 1.0 | 5.0 | 0.00 | 0.00 | 0.00 | 64 | 1012.8 |
| 20260902033008 | 87 | 143 | 1.0 | 6.0 | 0.00 | 0.00 | 0.00 | 64 | 1012.7 |
| 20260902031528 | 87 | 133 | 2.0 | 7.0 | 0.00 | 0.00 | 0.00 | 62 | 1012.5 |
| 20260902030014 | 88 | 110 | 3.0 | 8.0 | 0.00 | 0.00 | 0.00 | 60 | 1012.2 |
| 20260902024504 | 90 | 110 | 1.0 | 7.0 | 0.00 | 0.00 | 0.00 | 56 | 1011.8 |
| 20260902023024 | 90 | 84 | 3.0 | 8.0 | 0.00 | 0.00 | 0.00 | 55 | 1011.6 |
| 20260902021513 | 91 | 113 | 2.0 | 7.0 | 0.00 | 0.00 | 0.00 | 54 | 1011.3 |
| 20260902020105 | 91 | 110 | 1.0 | 8.0 | 0.00 | 0.00 | 0.00 | 53 | 1011.1 |
| 20260902014530 | 92 | 105 | 2.0 | 6.0 | 0.00 | 0.00 | 0.00 | 53 | 1010.9 |
| 20260902013013 | 92 | 97 | 2.0 | 6.0 | 0.00 | 0.00 | 0.00 | 52 | 1010.8 |
| 20260902011600 | 93 | 131 | 1.0 | 8.0 | 0.00 | 0.00 | 0.00 | 50 | 1010.6 |
| 20260902010031 | 94 | 80 | 1.0 | 6.0 | 0.00 | 0.00 | 0.00 | 48 | 1010.4 |
| 20260902004509 | 93 | 93 | 2.0 | 10.0 | 0.00 | 0.00 | 0.00 | 49 | 1010.5 |
| 20260902003033 | 95 | 123 | 0.0 | 1.0 | 0.00 | 0.00 | 0.00 | 46 | 1010.5 |
| 20260902001523 | 97 | 113 | 0.0 | 3.0 | 0.00 | 0.00 | 0.00 | 44 | 1010.5 |
| 20260902000017 | 98 | 115 | 0.0 | 7.0 | 0.00 | 0.00 | 0.00 | 43 | 1010.5 |
| 20260901234527 | 98 | 87 | 0.0 | 5.0 | 0.00 | 0.00 | 0.00 | 42 | 1010.4 |
| 20260901233016 | 98 | 137 | 1.0 | 4.0 | 0.00 | 0.00 | 0.00 | 41 | 1010.5 |
| 20260901231506 | 99 | 73 | 0.0 | 5.0 | 0.00 | 0.00 | 0.00 | 42 | 1010.5 |
| 20260901230027 | 98 | 173 | 0.0 | 5.0 | 0.00 | 0.00 | 0.00 | 42 | 1010.5 |
| 20260901224515 | 99 | 149 | 0.0 | 4.0 | 0.00 | 0.00 | 0.00 | 39 | 1010.5 |
| 20260901223002 | 99 | 120 | 1.0 | 6.0 | 0.00 | 0.00 | 0.00 | 40 | 1010.5 |
| 20260901221521 | 98 | 79 | 0.0 | 7.0 | 0.00 | 0.00 | 0.00 | 41 | 1010.5 |
| 20260901220017 | 98 | 196 | 0.0 | 4.0 | 0.00 | 0.00 | 0.00 | 42 | 1010.6 |
| 20260901214530 | 97 | 137 | 1.0 | 5.0 | 0.00 | 0.00 | 0.00 | 41 | 1010.7 |
| 20260901213016 | 98 | 81 | 0.0 | 7.0 | 0.00 | 0.00 | 0.00 | 40 | 1010.8 |
| 20260901211505 | 98 | 346 | 2.0 | 5.0 | 0.00 | 0.00 | 0.00 | 41 | 1010.9 |
| 20260901210024 | 97 | 346 | 2.0 | 8.0 | 0.00 | 0.00 | 0.00 | 41 | 1011.2 |
| 20260901204519 | 96 | 141 | 0.0 | 7.0 | 0.00 | 0.00 | 0.00 | 45 | 1011.5 |
| 20260901203035 | 96 | 71 | 2.0 | 5.0 | 0.00 | 0.00 | 0.00 | 43 | 1011.8 |
| 20260901201516 | 96 | 48 | 1.0 | 7.0 | 0.00 | 0.00 | 0.00 | 45 | 1012.0 |
| 20260901200008 | 96 | 62 | 3.0 | 9.0 | 0.00 | 0.00 | 0.00 | 43 | 1012.2 |
| 20260901194524 | 95 | 332 | 2.0 | 8.0 | 0.00 | 0.00 | 0.00 | 48 | 1012.4 |
| 20260901193012 | 95 | 100 | 0.0 | 6.0 | 0.00 | 0.00 | 0.00 | 45 | 1012.5 |
| 20260901191530 | 97 | 193 | 0.0 | 7.0 | 0.00 | 0.00 | 0.00 | 47 | 1012.7 |
| 20260901190022 | 94 | 271 | 1.0 | 6.0 | 0.00 | 0.00 | 0.00 | 47 | 1012.9 |
| 20260901184509 | 96 | 155 | 1.0 | 6.0 | 0.00 | 0.00 | 0.00 | 47 | 1013.1 |
| 20260901183022 | 94 | 346 | 0.0 | 5.0 | 0.00 | 0.00 | 0.00 | 46 | 1013.5 |
| 20260901181513 | 94 | 87 | 1.0 | 6.0 | 0.00 | 0.00 | 0.00 | 49 | 1013.7 |
| 20260901180025 | 93 | 117 | 2.0 | 5.0 | 0.00 | 0.00 | 0.00 | 49 | 1014.0 |
| 20260901174514 | 93 | 89 | 1.0 | 8.0 | 0.00 | 0.00 | 0.00 | 51 | 1014.2 |
| 20260901173035 | 92 | 144 | 1.0 | 7.0 | 0.00 | 0.00 | 0.00 | 49 | 1014.4 |
| 20260901171520 | 93 | 173 | 1.0 | 8.0 | 0.00 | 0.00 | 0.00 | 51 | 1014.5 |
| 20260901170009 | 90 | 106 | 2.0 | 5.0 | 0.00 | 0.00 | 0.00 | 57 | 1014.8 |
| 20260901164521 | 92 | 196 | 0.0 | 5.0 | 0.00 | 0.00 | 0.00 | 56 | 1014.8 |
| 20260901163010 | 90 | 119 | 1.0 | 6.0 | 0.00 | 0.00 | 0.00 | 55 | 1014.9 |
| 20260901161524 | 89 | 229 | 1.0 | 7.0 | 0.00 | 0.00 | 0.00 | 60 | 1015.0 |
| 20260901160009 | 89 | 144 | 0.0 | 5.0 | 0.00 | 0.00 | 0.00 | 63 | 1015.0 |
| 20260901154526 | 87 | 324 | 0.0 | 3.0 | 0.00 | 0.00 | 0.00 | 66 | 1015.0 |
| 20260901153011 | 87 | 180 | 1.0 | 4.0 | 0.00 | 0.00 | 0.00 | 68 | 1014.9 |
| 20260901151529 | 87 | 195 | 0.0 | 5.0 | 0.00 | 0.00 | 0.00 | 69 | 1015.0 |
| 20260901150012 | 85 | 136 | 1.0 | 4.0 | 0.00 | 0.00 | 0.00 | 73 | 1015.0 |
| 20260901144530 | 85 | 187 | 1.0 | 4.0 | 0.00 | 0.00 | 0.00 | 72 | 1015.1 |
| 20260901143015 | 84 | 195 | 0.0 | 5.0 | 0.00 | 0.00 | 0.00 | 78 | 1014.9 |
| 20260901141601 | 83 | 346 | 0.0 | 6.0 | 0.00 | 0.00 | 0.00 | 79 | 1014.9 |
| 20260901140018 | 82 | 237 | 0.0 | 6.0 | 0.00 | 0.00 | 0.00 | 82 | 1014.9 |
| 20260901134501 | 81 | 149 | 1.0 | 4.0 | 0.00 | 0.00 | 0.00 | 83 | 1014.9 |
| 20260901133020 | 80 | 209 | 2.0 | 6.0 | 0.00 | 0.00 | 0.00 | 84 | 1014.9 |
| 20260901131506 | 79 | 203 | 0.0 | 3.0 | 0.00 | 0.00 | 0.00 | 83 | 1014.8 |
| 20260901130022 | 79 | 199 | 0.0 | 3.0 | 0.00 | 0.00 | 0.00 | 82 | 1014.6 |
| 20260901124510 | 78 | 175 | 0.0 | 0.0 | 0.00 | 0.00 | 0.00 | 82 | 1014.3 |
| 20260901123033 | 77 | 175 | 0.0 | 0.0 | 0.00 | 0.00 | 0.00 | 82 | 1014.3 |
| 20260901121511 | 78 | 175 | 0.0 | 0.0 | 0.00 | 0.00 | 0.00 | 82 | 1014.2 |
| 20260901120114 | 78 | 213 | 0.0 | 1.0 | 0.00 | 0.00 | 0.00 | 83 | 1014.1 |
| 20260901114534 | 78 | 231 | 1.0 | 4.0 | 0.00 | 0.00 | 0.00 | 83 | 1014.1 |
| 20260901113017 | 79 | 223 | 2.0 | 5.0 | 0.00 | 0.00 | 0.00 | 83 | 1014.2 |
| 20260901111525 | 78 | 206 | 1.0 | 3.0 | 0.00 | 0.00 | 0.00 | 82 | 1014.2 |
| 20260901110012 | 78 | 140 | 0.0 | 0.0 | 0.00 | 0.00 | 0.00 | 83 | 1014.3 |
| 20260901104501 | 79 | 140 | 0.0 | 0.0 | 0.00 | 0.00 | 0.00 | 83 | 1014.3 |
| 20260901103021 | 81 | 140 | 0.0 | 3.0 | 0.00 | 0.00 | 0.00 | 83 | 1014.3 |
| 20260901101509 | 81 | 163 | 0.0 | 1.0 | 0.00 | 0.00 | 0.00 | 83 | 1014.2 |
| 20260901100026 | 79 | 187 | 0.0 | 3.0 | 0.00 | 0.00 | 0.00 | 83 | 1014.0 |
| 20260901094527 | 78 | 139 | 0.0 | 0.0 | 0.00 | 0.00 | 0.00 | 83 | 1014.0 |
| 20260901093005 | 80 | 139 | 0.0 | 0.0 | 0.00 | 0.00 | 0.00 | 83 | 1014.1 |
| 20260901091524 | 79 | 192 | 0.0 | 3.0 | 0.00 | 0.00 | 0.00 | 83 | 1014.1 |
| 20260901090012 | 78 | 163 | 0.0 | 3.0 | 0.00 | 0.00 | 0.00 | 84 | 1014.3 |
| 20260901084550 | 80 | 136 | 0.0 | 1.0 | 0.00 | 0.00 | 0.00 | 83 | 1014.3 |
| 20260901083022 | 81 | 136 | 0.0 | 1.0 | 0.00 | 0.00 | 0.00 | 83 | 1014.4 |
| 20260901081508 | 79 | 164 | 0.0 | 2.0 | 0.00 | 0.00 | 0.00 | 84 | 1014.3 |
| 20260901080028 | 81 | 155 | 0.0 | 3.0 | 0.00 | 0.00 | 0.00 | 81 | 1014.3 |
| 20260901074520 | 80 | 159 | 0.0 | 2.0 | 0.00 | 0.00 | 0.00 | 83 | 1014.1 |
| 20260901073005 | 79 | 177 | 0.0 | 1.0 | 0.00 | 0.00 | 0.00 | 83 | 1014.2 |
| 20260901071523 | 80 | 173 | 0.0 | 3.0 | 0.00 | 0.00 | 0.00 | 82 | 1014.3 |
| 20260901070011 | 81 | 147 | 0.0 | 2.0 | 0.00 | 0.00 | 0.00 | 80 | 1014.3 |
| 20260901064530 | 80 | 177 | 0.0 | 4.0 | 0.00 | 0.00 | 0.00 | 81 | 1014.2 |
| 20260901063018 | 82 | 147 | 0.0 | 3.0 | 0.00 | 0.00 | 0.00 | 77 | 1014.3 |
| 20260901061509 | 82 | 166 | 0.0 | 4.0 | 0.00 | 0.00 | 0.00 | 77 | 1014.2 |
| 20260901060024 | 82 | 131 | 0.0 | 4.0 | 0.00 | 0.00 | 0.00 | 76 | 1014.0 |
| 20260901054512 | 83 | 148 | 0.0 | 6.0 | 0.00 | 0.00 | 0.00 | 74 | 1013.8 |
| 20260901053102 | 82 | 112 | 0.0 | 8.0 | 0.00 | 0.00 | 0.00 | 75 | 1013.7 |
| 20260901051517 | 84 | 175 | 1.0 | 4.0 | 0.00 | 0.00 | 0.00 | 71 | 1013.8 |
| 20260901050003 | 85 | 132 | 1.0 | 7.0 | 0.00 | 0.00 | 0.00 | 70 | 1013.7 |